Location: Namasale
(1.5000°N, 32.6167°E)
Time: 19:12:56
(UTC+00:00)

Vanguard 3 - Pass Details

Date: 01 December 2021
Orbit: 508 x 3260 km, 33.3° (Epoch: 19 January)

Event Time Altitude Azimuth Distance (km) Brightness Sun altitude
Rises 21:48:17 0° 226° (SW) 5,226 11.5 -69.4°
Enters shadow 21:50:13 - 224° (SW) 4,768 11.2 -69.4°
Exits shadow 22:22:58 15° 63° (ENE) 5,793 11.4 -66.9°
Drops below altitude 10° 22:24:57 10° 62° (ENE) 6,189 11.6 -66.7°
Sets 22:29:44 0° 60° (ENE) 7,144 12.0 -66.1°
